EST,Max TemperatureF,Mean TemperatureF,Min TemperatureF,Max Dew PointF,MeanDew PointF,Min DewpointF,Max Humidity, Mean Humidity, Min Humidity, Max Sea Level PressureIn, Mean Sea Level PressureIn, Min Sea Level PressureIn, Max VisibilityMiles, Mean VisibilityMiles, Min VisibilityMiles, Max Wind SpeedMPH, Mean Wind SpeedMPH, Max Gust SpeedMPH,PrecipitationIn, CloudCover, Events, WindDirDegrees
2012-2-1,67,58,49,52,41,25,93,63,32,30.19,30.11,30.03,10,10,7,21,8,28,0.08,5,Rain,252
2012-2-2,62,53,44,50,38,25,93,61,29,30.35,30.12,29.98,10,10,10,28,11,33,T,3,Rain,302
2012-2-3,57,44,31,29,26,23,78,53,27,30.51,30.43,30.35,10,10,10,12,3,15,0.00,0,,72
2012-2-4,51,44,36,45,37,28,93,72,50,30.34,30.17,30.08,10,6,2,10,2,12,0.23,6,Rain,89
2012-2-5,41,38,34,37,35,32,92,89,85,30.28,30.14,30.04,10,7,2,10,4,15,0.13,7,Rain,137
2012-2-6,51,42,33,36,33,29,100,75,50,30.30,30.22,30.12,10,10,5,15,3,20,0.00,5,,259
2012-2-7,60,48,35,29,27,24,70,48,25,30.21,30.17,30.11,10,10,10,16,3,24,0.00,0,,285
2012-2-8,43,37,30,36,30,25,82,68,54,30.25,30.18,30.12,10,8,2,21,5,26,0.04,7,Rain-Snow,308
2012-2-9,47,39,30,26,21,19,64,49,34,30.31,30.24,30.20,10,10,10,21,7,25,0.00,3,,295
2012-2-10,46,37,27,34,27,22,72,61,49,30.20,30.07,29.89,10,10,10,10,3,14,T,3,Rain,16
2012-2-11,42,31,19,36,17,-2,85,60,35,30.11,29.90,29.79,10,10,3,37,17,49,0.01,6,Rain-Snow,305
2012-2-12,38,29,19,11,5,0,49,38,27,30.23,30.18,30.12,10,10,10,31,17,44,T,2,,301
2012-2-13,50,38,26,19,14,10,53,37,21,30.28,30.19,30.09,10,10,10,31,7,37,0.00,2,,278
2012-2-14,51,44,37,39,28,20,76,56,36,30.08,30.05,30.02,10,10,10,9,2,12,T,8,Rain,225
2012-2-15,60,49,38,35,29,27,71,50,28,30.29,30.22,30.08,10,10,10,24,6,31,0.00,2,,192
2012-2-16,54,49,44,45,42,28,93,67,41,30.26,30.10,30.03,10,5,0,14,4,17,0.14,8,Rain,122
2012-2-17,57,49,40,40,29,22,68,47,26,30.15,30.10,30.05,10,10,10,22,9,26,0.00,2,,311
2012-2-18,64,49,34,30,25,19,75,47,19,30.14,30.06,29.96,10,10,10,16,4,23,0.00,1,,303
2012-2-19,52,42,32,32,30,25,96,66,35,30.05,29.95,29.84,10,3,0,15,6,18,0.64,8,Fog-Rain-Snow,51
2012-2-20,49,38,26,31,26,19,92,63,34,30.36,30.18,30.00,10,8,2,13,2,,0.01,2,Snow,279
2012-2-21,53,38,23,34,29,21,92,69,46,30.34,30.13,29.93,10,10,8,21,5,26,0.00,1,,175
2012-2-22,63,50,37,45,36,26,86,57,27,29.93,29.76,29.57,10,9,2,26,6,36,0.43,4,Rain,261
2012-2-23,71,56,40,49,43,37,92,63,33,29.65,29.59,29.52,10,10,10,20,7,29,0.00,1,,215
2012-2-24,74,58,41,56,42,19,89,61,32,29.84,29.57,29.43,10,10,6,38,12,49,0.02,4,Rain-Thunderstorm,272
2012-2-25,43,38,32,20,13,10,44,37,29,30.36,30.08,29.85,10,10,10,36,19,49,T,5,,285
2012-2-26,51,39,27,21,16,12,57,41,24,30.50,30.43,30.38,10,10,10,17,5,21,0.00,0,,123
2012-2-27,63,46,28,35,27,20,75,51,27,30.45,30.37,30.26,10,10,10,16,5,21,T,2,Rain,250
2012-2-28,66,52,38,33,22,11,54,34,13,30.45,30.36,30.28,10,10,10,17,6,22,0.00,0,,126
2012-2-29,67,56,45,55,47,28,100,70,39,30.27,29.97,29.74,10,7,1,14,5,23,0.48,6,Rain-Thunderstorm,122